Albert Lea, MN

7:39 AM CDT on April 19, 2018 (GMT -0500)
Albert Lea Municipal

Weather History for KAEL - February, 2014

Change the Weather History Date:

Wednesday, February 26, 2014

  Actual Average Record
Temperature  
Mean Temperature 4 °F -  
Max Temperature 19 °F 29 °F 46 °F (1998)
Min Temperature -11 °F 16 °F -11 °F (2014)
Degree Days  
Heating Degree Days 61    
Moisture  
Dew Point -4 °F    
Average Humidity 73    
Maximum Humidity 84    
Minimum Humidity 66    
Precipitation  
Precipitation 0.00 in - - ()
Sea Level Pressure  
Sea Level Pressure 29.95 in    
Wind  
Wind Speed 11 mph (West)    
Max Wind Speed 24 mph    
Max Gust Speed 34 mph    
Visibility 9 miles    
Events Snow    
Averages and records for this station are not official NWS values.
T = Trace of Precipitation, MM = Missing Value Source: NWS Daily Summary

Daily Weather History Graph

Daily Weather History Graph

Search for Another Location

Airport or City:

Astronomy

Feb. 26, 2014 Rise Set
Actual Time 6:54 AM CST 5:58 PM CST
Civil Twilight 6:26 AM CST 6:27 PM CST
Nautical Twilight 5:52 AM CST 7:00 PM CST
Astronomical Twilight 5:19 AM CST 7:33 PM CST
Moon 4:45 AM CST (2/26) 3:10 PM CST (2/26)
Length of Visible Light 12h 01m
Length of Day
11h 03m
Waning Crescent, 10% of the Moon is Illuminated
Feb 26
Waning Crescent
Mar 1
New
Mar 8
First Quarter
Mar 16
Full
Mar 23
Last Quarter

Hourly Weather History & Observations

Time (CST) Temp. Windchill Dew Point Humidity Pressure Visibility Wind Dir Wind Speed Gust Speed Precip Events Conditions
12:12 AM -5.8 °F -23.4 °F -13.0 °F 71% 30.32 in 10.0 mi NW 10.4 mph 20.7 mph N/A   Clear
12:31 AM -5.8 °F -22.4 °F -13.0 °F 71% 30.32 in 10.0 mi WNW 9.2 mph 18.4 mph N/A   Clear
12:52 AM -5.8 °F -23.4 °F -13.0 °F 71% 30.31 in 10.0 mi NW 10.4 mph 20.7 mph N/A   Clear
1:11 AM -5.8 °F -23.4 °F -13.0 °F 71% 30.30 in 10.0 mi WNW 10.4 mph 17.3 mph N/A   Clear
1:32 AM -7.6 °F -24.6 °F -13.0 °F 77% 30.30 in 10.0 mi WNW 9.2 mph 16.1 mph N/A   Clear
1:52 AM -7.6 °F -23.4 °F -13.0 °F 77% 30.30 in 10.0 mi WNW 8.1 mph - N/A   Clear
2:11 AM -7.6 °F -23.4 °F -13.0 °F 77% 30.29 in 10.0 mi WNW 8.1 mph - N/A   Clear
2:32 AM -7.6 °F -22.1 °F -14.8 °F 71% 30.28 in 10.0 mi WNW 6.9 mph - N/A   Clear
2:52 AM -9.4 °F -20.9 °F -14.8 °F 77% 30.27 in 10.0 mi West 4.6 mph - N/A   Clear
3:11 AM -9.4 °F -22.7 °F -14.8 °F 77% 30.27 in 10.0 mi West 5.8 mph - N/A   Clear
3:32 AM -9.4 °F -20.9 °F -14.8 °F 77% 30.25 in 10.0 mi West 4.6 mph - N/A   Clear
3:52 AM -9.4 °F - -14.8 °F 77% 30.24 in 10.0 mi Calm Calm - N/A   Clear
4:12 AM -9.4 °F -18.6 °F -14.8 °F 77% 30.23 in 10.0 mi WSW 3.5 mph - N/A   Clear
4:31 AM -9.4 °F -18.6 °F -14.8 °F 77% 30.22 in 10.0 mi West 3.5 mph - N/A   Clear
4:52 AM -9.4 °F - -14.8 °F 77% 30.20 in 10.0 mi Calm Calm - N/A   Clear
5:11 AM -9.4 °F -18.6 °F -14.8 °F 77% 30.19 in 10.0 mi SW 3.5 mph - N/A   Clear
5:32 AM -9.4 °F -18.6 °F -14.8 °F 77% 30.18 in 10.0 mi SW 3.5 mph - N/A   Clear
5:52 AM -11.2 °F -23.0 °F -16.6 °F 77% 30.16 in 10.0 mi SW 4.6 mph - N/A   Clear
6:11 AM -9.4 °F -18.6 °F -14.8 °F 77% 30.14 in 10.0 mi SW 3.5 mph - N/A   Clear
6:32 AM -9.4 °F -20.9 °F -14.8 °F 77% 30.13 in 10.0 mi SW 4.6 mph - N/A   Clear
6:52 AM -9.4 °F -20.9 °F -13.0 °F 84% 30.12 in 10.0 mi WSW 4.6 mph - N/A   Clear
7:11 AM -7.6 °F -22.1 °F -11.2 °F 84% 30.11 in 10.0 mi SW 6.9 mph - N/A   Clear
7:32 AM -7.6 °F -23.4 °F -11.2 °F 84% 30.10 in 10.0 mi WSW 8.1 mph - N/A   Clear
7:52 AM -7.6 °F -23.4 °F -11.2 °F 84% 30.09 in 10.0 mi SW 8.1 mph - N/A   Clear
8:11 AM -5.8 °F -23.4 °F -11.2 °F 77% 30.08 in 10.0 mi SW 10.4 mph - N/A   Clear
8:32 AM -5.8 °F -22.4 °F -11.2 °F 77% 30.06 in 10.0 mi SW 9.2 mph - N/A   Clear
8:52 AM -5.8 °F -22.4 °F -11.2 °F 77% 30.06 in 10.0 mi SW 9.2 mph 18.4 mph N/A   Clear
9:11 AM -2.2 °F -20.7 °F -11.2 °F 66% 30.04 in 10.0 mi SW 12.7 mph 19.6 mph N/A   Clear
9:32 AM -2.2 °F -19.9 °F -9.4 °F 71% 30.03 in 10.0 mi SW 11.5 mph 20.7 mph N/A   Clear
9:51 AM -2.2 °F -22.2 °F -9.4 °F 71% 30.01 in 10.0 mi WSW 15.0 mph 19.6 mph N/A   Clear
10:12 AM -0.4 °F -18.4 °F -7.6 °F 72% 30.00 in 10.0 mi SW 12.7 mph 20.7 mph N/A   Clear
10:32 AM 1.4 °F -15.3 °F -7.6 °F 66% 29.98 in 10.0 mi WSW 11.5 mph 23.0 mph N/A   Clear
10:52 AM 1.4 °F -18.2 °F -5.8 °F 72% 29.96 in 7.0 mi SW 16.1 mph 24.2 mph N/A   Clear
11:11 AM 3.2 °F -13.9 °F -5.8 °F 66% 29.95 in 7.0 mi SW 12.7 mph 24.2 mph N/A   Clear
11:32 AM 3.2 °F -17.1 °F -5.8 °F 66% 29.92 in 3.0 mi WSW 18.4 mph 28.8 mph N/A   Haze
11:52 AM 3.2 °F -16.5 °F -2.2 °F 78% 29.90 in 10.0 mi SW 17.3 mph 26.5 mph N/A   Scattered Clouds
12:11 PM 6.8 °F -12.4 °F -2.2 °F 67% 29.87 in 7.0 mi SW 18.4 mph 27.6 mph N/A   Scattered Clouds
12:32 PM 8.6 °F -8.9 °F -0.4 °F 67% 29.85 in 7.0 mi WSW 16.1 mph 28.8 mph N/A   Scattered Clouds
12:51 PM 8.6 °F -12.3 °F 1.4 °F 73% 29.81 in 5.0 mi SW 24.2 mph 32.2 mph N/A   Haze
1:12 PM 10.4 °F -8.2 °F 1.4 °F 67% 29.80 in 10.0 mi WSW 19.6 mph 29.9 mph N/A   Scattered Clouds
1:31 PM 10.4 °F -7.2 °F 3.2 °F 73% 29.78 in 7.0 mi SW 17.3 mph 28.8 mph N/A   Scattered Clouds
1:52 PM 12.2 °F -5.3 °F 5.0 °F 73% 29.76 in 10.0 mi WSW 18.4 mph 28.8 mph N/A   Scattered Clouds
2:11 PM 12.2 °F -5.3 °F 6.8 °F 79% 29.73 in 10.0 mi SW 18.4 mph 27.6 mph N/A   Scattered Clouds
2:32 PM 14.0 °F -2.5 °F 6.8 °F 73% 29.71 in 10.0 mi SW 17.3 mph 31.1 mph N/A   Scattered Clouds
2:52 PM 15.8 °F -1.5 °F 6.8 °F 68% 29.69 in 7.0 mi WSW 20.7 mph 29.9 mph N/A   Clear
3:11 PM 15.8 °F 1.4 °F 8.6 °F 73% 29.69 in 7.0 mi WSW 13.8 mph 33.4 mph N/A   Clear
3:32 PM 15.8 °F 0.3 °F 8.6 °F 73% 29.69 in 10.0 mi WSW 16.1 mph 31.1 mph N/A   Clear
3:52 PM 15.8 °F -0.2 °F 8.6 °F 73% 29.68 in 10.0 mi WSW 17.3 mph 25.3 mph N/A   Clear
4:12 PM 17.6 °F 2.2 °F 10.4 °F 73% 29.68 in 10.0 mi WSW 17.3 mph 26.5 mph N/A   Clear
4:32 PM 17.6 °F 2.7 °F 10.4 °F 73% 29.67 in 10.0 mi WSW 16.1 mph 25.3 mph N/A   Scattered Clouds
4:51 PM 17.6 °F 2.7 °F 10.4 °F 73% 29.67 in 10.0 mi West 16.1 mph 26.5 mph N/A   Scattered Clouds
5:12 PM 19.4 °F 4.1 °F 10.4 °F 68% 29.67 in 10.0 mi West 18.4 mph 27.6 mph N/A   Scattered Clouds
5:31 PM 17.6 °F 3.2 °F 10.4 °F 73% 29.67 in 10.0 mi West 15.0 mph 27.6 mph N/A   Overcast
5:51 PM 17.6 °F 2.7 °F 10.4 °F 73% 29.67 in 10.0 mi West 16.1 mph 29.9 mph N/A   Mostly Cloudy
6:12 PM 17.6 °F 2.7 °F 10.4 °F 73% 29.68 in 10.0 mi West 16.1 mph 23.0 mph N/A   Scattered Clouds
6:31 PM 17.6 °F 3.7 °F 10.4 °F 73% 29.69 in 10.0 mi West 13.8 mph 20.7 mph N/A   Scattered Clouds
6:52 PM 17.6 °F 2.2 °F 12.2 °F 79% 29.70 in 1.8 mi WNW 17.3 mph 24.2 mph N/A Snow Light Snow
7:11 PM 15.8 °F 0.9 °F 8.6 °F 73% 29.71 in 7.0 mi NW 15.0 mph 27.6 mph N/A   Mostly Cloudy
7:31 PM 14.0 °F -2.5 °F 6.8 °F 73% 29.72 in 7.0 mi NW 17.3 mph 28.8 mph N/A   Scattered Clouds
7:52 PM 12.2 °F -4.8 °F 5.0 °F 73% 29.74 in 7.0 mi NW 17.3 mph 34.5 mph N/A   Scattered Clouds
8:11 PM 10.4 °F -7.7 °F 1.4 °F 67% 29.75 in 10.0 mi NW 18.4 mph 28.8 mph N/A   Clear
8:32 PM 10.4 °F -7.2 °F 1.4 °F 67% 29.77 in 10.0 mi NW 17.3 mph 25.3 mph N/A   Clear
8:51 PM 8.6 °F -7.7 °F -0.4 °F 67% 29.78 in 10.0 mi NW 13.8 mph 29.9 mph N/A   Clear
9:12 PM 8.6 °F -8.3 °F -0.4 °F 67% 29.79 in 10.0 mi NW 15.0 mph 27.6 mph N/A   Clear
9:31 PM 8.6 °F -8.9 °F -0.4 °F 67% 29.80 in 10.0 mi NW 16.1 mph 23.0 mph N/A   Clear
9:52 PM 8.6 °F -7.7 °F 1.4 °F 73% 29.81 in 10.0 mi WNW 13.8 mph 23.0 mph N/A   Clear
10:11 PM 6.8 °F -11.3 °F 1.4 °F 79% 29.81 in 10.0 mi NW 16.1 mph 23.0 mph N/A   Clear
10:31 PM 6.8 °F -12.4 °F 1.4 °F 79% 29.82 in 7.0 mi NW 18.4 mph 26.5 mph N/A   Scattered Clouds
10:52 PM 6.8 °F -12.4 °F -2.2 °F 67% 29.83 in 10.0 mi WNW 18.4 mph 28.8 mph N/A   Scattered Clouds
11:11 PM 3.2 °F -15.9 °F -5.8 °F 66% 29.84 in 10.0 mi NW 16.1 mph 32.2 mph N/A   Clear
11:32 PM 1.4 °F -16.9 °F -5.8 °F 72% 29.86 in 10.0 mi NW 13.8 mph 20.7 mph N/A   Scattered Clouds
11:51 PM 1.4 °F -16.9 °F -7.6 °F 66% 29.87 in 10.0 mi NW 13.8 mph 23.0 mph N/A   Clear